This is the latest recevied weather packets stored in our database for station/object NE1CU. If no packets are shown the sender has not sent any weather packets the latest 10 day(s).
| Time | Temp. | Humidity | Pressure | Rain* | Wind** | Luminosity | Snow |
|---|---|---|---|---|---|---|---|
| 1778084606 | 16.11° C | 80% | 1009.7 hPa | 0 mm | - | 86 W/m² | - |
| 1778084303 | 16.11° C | 79% | 1009.6 hPa | 0 mm | - | 101 W/m² | - |
| 1778084000 | 16.11° C | 78% | 1009.5 hPa | 0 mm | - | 114 W/m² | - |
| 1778083698 | 16.11° C | 78% | 1009.7 hPa | 0 mm | - | 114 W/m² | - |
| 1778083394 | 16.11° C | 78% | 1009.8 hPa | 0 mm | - | 95 W/m² | - |
| 1778083093 | 16.11° C | 77% | 1009.7 hPa | 0 mm | - | 78 W/m² | - |
| 1778082790 | 16.67° C | 76% | 1009.8 hPa | 0 mm | - | 97 W/m² | - |
| 1778081662 | 17.22° C | 74% | 1009.9 hPa | 0 mm | - | 159 W/m² | - |
| 1778081359 | 17.22° C | 75% | 1009.9 hPa | 0 mm | - | 374 W/m² | - |
| 1778081056 | 17.22° C | 74% | 1010.2 hPa | 0 mm | - | 295 W/m² | - |
| 1778080755 | 16.67° C | 76% | 1010 hPa | 0 mm | - | 258 W/m² | - |
| 1778080451 | 16.67° C | 75% | 1009.9 hPa | 0 mm | - | 258 W/m² | - |
| 1778080149 | 16.67° C | 75% | 1009.7 hPa | 0 mm | - | 226 W/m² | - |
| 1778079845 | 16.67° C | 76% | 1009.8 hPa | 0 mm | - | 186 W/m² | - |
| 1778079541 | 16.67° C | 76% | 1009.8 hPa | 0 mm | - | 198 W/m² | - |
| 1778079238 | 16.67° C | 76% | 1009.7 hPa | 0 mm | - | 251 W/m² | - |
| 1778078936 | 16.67° C | 76% | 1009.8 hPa | 0 mm | - | 226 W/m² | - |
| 1778078631 | 16.67° C | 76% | 1009.9 hPa | 0 mm | - | 171 W/m² | - |
| 1778078330 | 16.67° C | 76% | 1009.8 hPa | 0 mm | - | 225 W/m² | - |
| 1778078026 | 16.67° C | 76% | 1009.9 hPa | 0 mm | - | 219 W/m² | - |
| 1778077725 | 17.22° C | 75% | 1010.1 hPa | 0 mm | - | 209 W/m² | - |
| 1778077423 | 17.22° C | 75% | 1010.3 hPa | 0 mm | - | 185 W/m² | - |
| 1778077121 | 17.22° C | 74% | 1010.1 hPa | 0 mm | - | 268 W/m² | - |
| 1778076819 | 17.22° C | 74% | 1010.3 hPa | 0 mm | - | 263 W/m² | - |
| 1778076516 | 17.78° C | 72% | 1010 hPa | 0 mm | - | 345 W/m² | - |
* Rain latest hour (hover to see other rain measurements)
** Current wind speed in m/s (hover to see current wind gust speed)